Year,Month,Day,Hour,Minute,Value (Times are PST for temperature in C)
2014,07,12,00,00,20.10
2014,07,12,00,01,20.10
2014,07,12,00,02,20.10
2014,07,12,00,03,20.10
2014,07,12,00,04,20.10
2014,07,12,00,05,20.10
2014,07,12,00,06,20.00
2014,07,12,00,07,20.00
2014,07,12,00,08,20.00
2014,07,12,00,09,19.90
2014,07,12,00,10,19.90
2014,07,12,00,11,19.90
2014,07,12,00,12,19.90
2014,07,12,00,13,19.80
2014,07,12,00,14,19.80
2014,07,12,00,15,19.80
2014,07,12,00,16,19.70
2014,07,12,00,17,19.70
2014,07,12,00,18,19.70
2014,07,12,00,19,19.60
2014,07,12,00,20,19.60
2014,07,12,00,21,19.60
2014,07,12,00,22,19.50
2014,07,12,00,23,19.50
2014,07,12,00,24,19.50
2014,07,12,00,25,19.40
2014,07,12,00,26,19.40
2014,07,12,00,27,19.40
2014,07,12,00,28,19.30
2014,07,12,00,29,19.30
2014,07,12,00,30,19.30
2014,07,12,00,31,19.30
2014,07,12,00,32,19.30
2014,07,12,00,33,19.20
2014,07,12,00,34,19.20
2014,07,12,00,35,19.20
2014,07,12,00,36,19.20
2014,07,12,00,37,19.10
2014,07,12,00,38,19.10
2014,07,12,00,39,19.10
2014,07,12,00,40,19.10
2014,07,12,00,41,19.00
2014,07,12,00,42,19.00
2014,07,12,00,43,19.00
2014,07,12,00,44,19.00
2014,07,12,00,45,18.90
2014,07,12,00,46,18.90
2014,07,12,00,47,18.90
2014,07,12,00,48,18.90
2014,07,12,00,49,18.90
2014,07,12,00,50,18.90
2014,07,12,00,51,18.80
2014,07,12,00,52,18.80
2014,07,12,00,53,18.80
2014,07,12,00,54,18.80
2014,07,12,00,55,18.80
2014,07,12,00,56,18.80
2014,07,12,00,57,18.80
2014,07,12,00,58,18.70
2014,07,12,00,59,18.70
2014,07,12,01,00,18.70
2014,07,12,01,01,18.70
2014,07,12,01,02,18.70
2014,07,12,01,03,18.60
2014,07,12,01,04,18.60
2014,07,12,01,05,18.60
2014,07,12,01,06,18.60
2014,07,12,01,07,18.60
2014,07,12,01,08,18.60
2014,07,12,01,09,18.50
2014,07,12,01,10,18.50
2014,07,12,01,11,18.50
2014,07,12,01,12,18.50
2014,07,12,01,13,18.40
2014,07,12,01,14,18.40
2014,07,12,01,15,18.40
2014,07,12,01,16,18.40
2014,07,12,01,17,18.40
2014,07,12,01,18,18.40
2014,07,12,01,19,18.40
2014,07,12,01,20,18.30
2014,07,12,01,21,18.30
2014,07,12,01,22,18.30
2014,07,12,01,23,18.30
2014,07,12,01,24,18.30
2014,07,12,01,25,18.30
2014,07,12,01,26,18.30
2014,07,12,01,27,18.30
2014,07,12,01,28,18.30
2014,07,12,01,29,18.20
2014,07,12,01,30,18.20
2014,07,12,01,31,18.20
2014,07,12,01,32,18.20
2014,07,12,01,33,18.20
2014,07,12,01,34,18.20
2014,07,12,01,35,18.10
2014,07,12,01,36,18.10
2014,07,12,01,37,18.10
2014,07,12,01,38,18.10
2014,07,12,01,39,18.10
2014,07,12,01,40,18.00
2014,07,12,01,41,18.00
2014,07,12,01,42,18.00
2014,07,12,01,43,17.90
2014,07,12,01,44,17.90
2014,07,12,01,45,17.90
2014,07,12,01,46,17.80
2014,07,12,01,47,17.80
2014,07,12,01,48,17.80
2014,07,12,01,49,17.80
2014,07,12,01,50,17.70
2014,07,12,01,51,17.70
2014,07,12,01,52,17.70
2014,07,12,01,53,17.70
2014,07,12,01,54,17.70
2014,07,12,01,55,17.60
2014,07,12,01,56,17.60
2014,07,12,01,57,17.60
2014,07,12,01,58,17.60
2014,07,12,01,59,17.50
2014,07,12,02,00,17.50
2014,07,12,02,01,17.40
2014,07,12,02,02,17.40
2014,07,12,02,03,17.40
2014,07,12,02,04,17.30
2014,07,12,02,05,17.30
2014,07,12,02,06,17.30
2014,07,12,02,07,17.30
2014,07,12,02,08,17.20
2014,07,12,02,09,17.20
2014,07,12,02,10,17.20
2014,07,12,02,11,17.10
2014,07,12,02,12,17.10
2014,07,12,02,13,17.10
2014,07,12,02,14,17.10
2014,07,12,02,15,17.10
2014,07,12,02,16,17.00
2014,07,12,02,17,17.00
2014,07,12,02,18,17.00
2014,07,12,02,19,16.90
2014,07,12,02,20,16.90
2014,07,12,02,21,16.90
2014,07,12,02,22,16.90
2014,07,12,02,23,16.90
2014,07,12,02,24,16.80
2014,07,12,02,25,16.80
2014,07,12,02,26,16.80
2014,07,12,02,27,16.80
2014,07,12,02,28,16.80
2014,07,12,02,29,16.70
2014,07,12,02,30,16.70
2014,07,12,02,31,16.70
2014,07,12,02,32,16.70
2014,07,12,02,33,16.60
2014,07,12,02,34,16.60
2014,07,12,02,35,16.60
2014,07,12,02,36,16.50
2014,07,12,02,37,16.50
2014,07,12,02,38,16.50
2014,07,12,02,39,16.40
2014,07,12,02,40,16.40
2014,07,12,02,41,16.40
2014,07,12,02,42,16.40
2014,07,12,02,43,16.30
2014,07,12,02,44,16.30
2014,07,12,02,45,16.30
2014,07,12,02,46,16.30
2014,07,12,02,47,16.30
2014,07,12,02,48,16.30
2014,07,12,02,49,16.30
2014,07,12,02,50,16.30
2014,07,12,02,51,16.30
2014,07,12,02,52,16.20
2014,07,12,02,53,16.20
2014,07,12,02,54,16.20
2014,07,12,02,55,16.20
2014,07,12,02,56,16.20
2014,07,12,02,57,16.20
2014,07,12,02,58,16.10
2014,07,12,02,59,16.10
2014,07,12,03,00,16.10
2014,07,12,03,01,16.10
2014,07,12,03,02,16.00
2014,07,12,03,03,16.00
2014,07,12,03,04,16.00
2014,07,12,03,05,15.90
2014,07,12,03,06,15.90
2014,07,12,03,07,15.90
2014,07,12,03,08,15.90
2014,07,12,03,09,15.90
2014,07,12,03,10,15.80
2014,07,12,03,11,15.80
2014,07,12,03,12,15.80
2014,07,12,03,13,15.80
2014,07,12,03,14,15.80
2014,07,12,03,15,15.80
2014,07,12,03,16,15.80
2014,07,12,03,17,15.70
2014,07,12,03,18,15.70
2014,07,12,03,19,15.70
2014,07,12,03,20,15.70
2014,07,12,03,21,15.70
2014,07,12,03,22,15.70
2014,07,12,03,23,15.70
2014,07,12,03,24,15.60
2014,07,12,03,25,15.60
2014,07,12,03,26,15.60
2014,07,12,03,27,15.60
2014,07,12,03,28,15.50
2014,07,12,03,29,15.50
2014,07,12,03,30,15.50
2014,07,12,03,31,15.50
2014,07,12,03,32,15.40
2014,07,12,03,33,15.40
2014,07,12,03,34,15.40
2014,07,12,03,35,15.40
2014,07,12,03,36,15.40
2014,07,12,03,37,15.40
2014,07,12,03,38,15.40
2014,07,12,03,39,15.40
2014,07,12,03,40,15.40
2014,07,12,03,41,15.30
2014,07,12,03,42,15.30
2014,07,12,03,43,15.30
2014,07,12,03,44,15.30
2014,07,12,03,45,15.30
2014,07,12,03,46,15.30
2014,07,12,03,47,15.30
2014,07,12,03,48,15.30
2014,07,12,03,49,15.20
2014,07,12,03,50,15.20
2014,07,12,03,51,15.20
2014,07,12,03,52,15.20
2014,07,12,03,53,15.20
2014,07,12,03,54,15.20
2014,07,12,03,55,15.20
2014,07,12,03,56,15.20
2014,07,12,03,57,15.20
2014,07,12,03,58,15.10
2014,07,12,03,59,15.10
2014,07,12,04,00,15.10
2014,07,12,04,01,15.10
2014,07,12,04,02,15.10
2014,07,12,04,03,15.10
2014,07,12,04,04,15.10
2014,07,12,04,05,15.10
2014,07,12,04,06,15.10
2014,07,12,04,07,15.10
2014,07,12,04,08,15.10
2014,07,12,04,09,15.10
2014,07,12,04,10,15.10
2014,07,12,04,11,15.10
2014,07,12,04,12,15.10
2014,07,12,04,13,15.10
2014,07,12,04,14,15.10
2014,07,12,04,15,15.10
2014,07,12,04,16,15.10
2014,07,12,04,17,15.10
2014,07,12,04,18,15.10
2014,07,12,04,19,15.10
2014,07,12,04,20,15.10
2014,07,12,04,21,15.10
2014,07,12,04,22,15.10
2014,07,12,04,23,15.10
2014,07,12,04,24,15.00
2014,07,12,04,25,15.00
2014,07,12,04,26,15.00
2014,07,12,04,27,15.00
2014,07,12,04,28,15.00
2014,07,12,04,29,14.90
2014,07,12,04,30,14.90
2014,07,12,04,31,14.90
2014,07,12,04,32,14.90
2014,07,12,04,33,14.90
2014,07,12,04,34,14.90
2014,07,12,04,35,14.90
2014,07,12,04,36,14.90
2014,07,12,04,37,14.90
2014,07,12,04,38,14.90
2014,07,12,04,39,14.90
2014,07,12,04,40,14.90
2014,07,12,04,41,14.90
2014,07,12,04,42,14.90
2014,07,12,04,43,14.90
2014,07,12,04,44,14.90
2014,07,12,04,45,14.90
2014,07,12,04,46,14.90
2014,07,12,04,47,14.90
2014,07,12,04,48,14.90
2014,07,12,04,49,14.90
2014,07,12,04,50,14.90
2014,07,12,04,51,14.90
2014,07,12,04,52,14.90
2014,07,12,04,53,14.80
2014,07,12,04,54,14.80
2014,07,12,04,55,14.80
2014,07,12,04,56,14.80
2014,07,12,04,57,14.80
2014,07,12,04,58,14.80
2014,07,12,04,59,14.80
2014,07,12,05,00,14.80
2014,07,12,05,01,14.80
2014,07,12,05,02,14.80
2014,07,12,05,03,14.80
2014,07,12,05,04,14.80
2014,07,12,05,05,14.80
2014,07,12,05,06,14.80
2014,07,12,05,07,14.80
2014,07,12,05,08,14.80
2014,07,12,05,09,14.80
2014,07,12,05,10,14.80
2014,07,12,05,11,14.80
2014,07,12,05,12,14.80
2014,07,12,05,13,14.80
2014,07,12,05,14,14.80
2014,07,12,05,15,14.80
2014,07,12,05,16,14.70
2014,07,12,05,17,14.70
2014,07,12,05,18,14.70
2014,07,12,05,19,14.70
2014,07,12,05,20,14.70
2014,07,12,05,21,14.70
2014,07,12,05,22,14.70
2014,07,12,05,23,14.60
2014,07,12,05,24,14.60
2014,07,12,05,25,14.60
2014,07,12,05,26,14.60
2014,07,12,05,27,14.60
2014,07,12,05,28,14.60
2014,07,12,05,29,14.60
2014,07,12,05,30,14.60
2014,07,12,05,31,14.60
2014,07,12,05,32,14.60
2014,07,12,05,33,14.60
2014,07,12,05,34,14.60
2014,07,12,05,35,14.60
2014,07,12,05,36,14.60
2014,07,12,05,37,14.50
2014,07,12,05,38,14.50
2014,07,12,05,39,14.50
2014,07,12,05,40,14.50
2014,07,12,05,41,14.50
2014,07,12,05,42,14.50
2014,07,12,05,43,14.50
2014,07,12,05,44,14.50
2014,07,12,05,45,14.40
2014,07,12,05,46,14.40
2014,07,12,05,47,14.40
2014,07,12,05,48,14.40
2014,07,12,05,49,14.40
2014,07,12,05,50,14.40
2014,07,12,05,51,14.40
2014,07,12,05,52,14.40
2014,07,12,05,53,14.40
2014,07,12,05,54,14.40
2014,07,12,05,55,14.40
2014,07,12,05,56,14.30
2014,07,12,05,57,14.30
2014,07,12,05,58,14.30
2014,07,12,05,59,14.30
2014,07,12,06,00,14.30
2014,07,12,06,01,14.30
2014,07,12,06,02,14.30
2014,07,12,06,03,14.30
2014,07,12,06,04,14.30
2014,07,12,06,05,14.30
2014,07,12,06,06,14.30
2014,07,12,06,07,14.20
2014,07,12,06,08,14.20
2014,07,12,06,09,14.20
2014,07,12,06,10,14.20
2014,07,12,06,11,14.20
2014,07,12,06,12,14.20
2014,07,12,06,13,14.20
2014,07,12,06,14,14.20
2014,07,12,06,15,14.20
2014,07,12,06,16,14.10
2014,07,12,06,17,14.10
2014,07,12,06,18,14.10
2014,07,12,06,19,14.10
2014,07,12,06,20,14.10
2014,07,12,06,21,14.10
2014,07,12,06,22,14.10
2014,07,12,06,23,14.10
2014,07,12,06,24,14.10
2014,07,12,06,25,14.20
2014,07,12,06,26,14.20
2014,07,12,06,27,14.20
2014,07,12,06,28,14.20
2014,07,12,06,29,14.20
2014,07,12,06,30,14.20
2014,07,12,06,31,14.20
2014,07,12,06,32,14.20
2014,07,12,06,33,14.20
2014,07,12,06,34,14.20
2014,07,12,06,35,14.20
2014,07,12,06,36,14.20
2014,07,12,06,37,14.20
2014,07,12,06,38,14.20
2014,07,12,06,39,14.20
2014,07,12,06,40,14.20
2014,07,12,06,41,14.20
2014,07,12,06,42,14.20
2014,07,12,06,43,14.20
2014,07,12,06,44,14.20
2014,07,12,06,45,14.20
2014,07,12,06,46,14.20
2014,07,12,06,47,14.20
2014,07,12,06,48,14.20
2014,07,12,06,49,14.30
2014,07,12,06,50,14.30
2014,07,12,06,51,14.30
2014,07,12,06,52,14.30
2014,07,12,06,53,14.30
2014,07,12,06,54,14.30
2014,07,12,06,55,14.30
2014,07,12,06,56,14.30
2014,07,12,06,57,14.40
2014,07,12,06,58,14.40
2014,07,12,06,59,14.40
2014,07,12,07,00,14.40
2014,07,12,07,01,14.40
2014,07,12,07,02,14.50
2014,07,12,07,03,14.50
2014,07,12,07,04,14.60
2014,07,12,07,05,14.60
2014,07,12,07,06,14.70
2014,07,12,07,07,14.70
2014,07,12,07,08,14.80
2014,07,12,07,09,14.90
2014,07,12,07,10,15.00
2014,07,12,07,11,15.00
2014,07,12,07,12,15.10
2014,07,12,07,13,15.20
2014,07,12,07,14,15.30
2014,07,12,07,15,15.30
2014,07,12,07,16,15.40
2014,07,12,07,17,15.50
2014,07,12,07,18,15.60
2014,07,12,07,19,15.60
2014,07,12,07,20,15.70
2014,07,12,07,21,15.70
2014,07,12,07,22,15.80
2014,07,12,07,23,15.80
2014,07,12,07,24,15.90
2014,07,12,07,25,16.00
2014,07,12,07,26,16.00
2014,07,12,07,27,16.10
2014,07,12,07,28,16.10
2014,07,12,07,29,16.20
2014,07,12,07,30,16.30
2014,07,12,07,31,16.30
2014,07,12,07,32,16.30
2014,07,12,07,33,16.40
2014,07,12,07,34,16.40
2014,07,12,07,35,16.50
2014,07,12,07,36,16.50
2014,07,12,07,37,16.50
2014,07,12,07,38,16.60
2014,07,12,07,39,16.60
2014,07,12,07,40,16.70
2014,07,12,07,41,16.70
2014,07,12,07,42,16.70
2014,07,12,07,43,16.80
2014,07,12,07,44,16.90
2014,07,12,07,45,17.00
2014,07,12,07,46,17.00
2014,07,12,07,47,17.10
2014,07,12,07,48,17.20
2014,07,12,07,49,17.20
2014,07,12,07,50,17.20
2014,07,12,07,51,17.30
2014,07,12,07,52,17.30
2014,07,12,07,53,17.30
2014,07,12,07,54,17.30
2014,07,12,07,55,17.40
2014,07,12,07,56,17.40
2014,07,12,07,57,17.40
2014,07,12,07,58,17.40
2014,07,12,07,59,17.40
2014,07,12,08,00,17.50
2014,07,12,08,01,17.50
2014,07,12,08,02,17.50
2014,07,12,08,03,17.60
2014,07,12,08,04,17.60
2014,07,12,08,05,17.60
2014,07,12,08,06,17.60
2014,07,12,08,07,17.70
2014,07,12,08,08,17.70
2014,07,12,08,09,17.70
2014,07,12,08,10,17.70
2014,07,12,08,11,17.80
2014,07,12,08,12,17.80
2014,07,12,08,13,17.90
2014,07,12,08,14,17.90
2014,07,12,08,15,18.00
2014,07,12,08,16,18.00
2014,07,12,08,17,18.10
2014,07,12,08,18,18.10
2014,07,12,08,19,18.10
2014,07,12,08,20,18.20
2014,07,12,08,21,18.20
2014,07,12,08,22,18.20
2014,07,12,08,23,18.20
2014,07,12,08,24,18.30
2014,07,12,08,25,18.30
2014,07,12,08,26,18.30
2014,07,12,08,27,18.30
2014,07,12,08,28,18.40
2014,07,12,08,29,18.40
2014,07,12,08,30,18.40
2014,07,12,08,31,18.40
2014,07,12,08,32,18.40
2014,07,12,08,33,18.50
2014,07,12,08,34,18.50
2014,07,12,08,35,18.50
2014,07,12,08,36,18.60
2014,07,12,08,37,18.60
2014,07,12,08,38,18.60
2014,07,12,08,39,18.70
2014,07,12,08,40,18.70
2014,07,12,08,41,18.80
2014,07,12,08,42,18.80
2014,07,12,08,43,18.90
2014,07,12,08,44,18.90
2014,07,12,08,45,19.00
2014,07,12,08,46,19.10
2014,07,12,08,47,19.10
2014,07,12,08,48,19.20
2014,07,12,08,49,19.30
2014,07,12,08,50,19.30
2014,07,12,08,51,19.40
2014,07,12,08,52,19.50
2014,07,12,08,53,19.50
2014,07,12,08,54,19.60
2014,07,12,08,55,19.70
2014,07,12,08,56,19.70
2014,07,12,08,57,19.80
2014,07,12,08,58,19.80
2014,07,12,08,59,19.80
2014,07,12,09,00,19.90
2014,07,12,09,01,20.00
2014,07,12,09,02,20.00
2014,07,12,09,03,20.10
2014,07,12,09,04,20.10
2014,07,12,09,05,20.10
2014,07,12,09,06,20.20
2014,07,12,09,07,20.20
2014,07,12,09,08,20.30
2014,07,12,09,09,20.30
2014,07,12,09,10,20.40
2014,07,12,09,11,20.50
2014,07,12,09,12,20.50
2014,07,12,09,13,20.60
2014,07,12,09,14,20.70
2014,07,12,09,15,20.80
2014,07,12,09,16,20.90
2014,07,12,09,17,21.00
2014,07,12,09,18,21.10
2014,07,12,09,19,21.20
2014,07,12,09,20,21.30
2014,07,12,09,21,21.40
2014,07,12,09,22,21.40
2014,07,12,09,23,21.50
2014,07,12,09,24,21.60
2014,07,12,09,25,21.60
2014,07,12,09,26,21.70
2014,07,12,09,27,21.80
2014,07,12,09,28,21.90
2014,07,12,09,29,21.90
2014,07,12,09,30,22.00
2014,07,12,09,31,22.00
2014,07,12,09,32,22.10
2014,07,12,09,33,22.10
2014,07,12,09,34,22.20
2014,07,12,09,35,22.20
2014,07,12,09,36,22.20
2014,07,12,09,37,22.20
2014,07,12,09,38,22.30
2014,07,12,09,39,22.30
2014,07,12,09,40,22.30
2014,07,12,09,41,22.30
2014,07,12,09,42,22.40
2014,07,12,09,43,22.40
2014,07,12,09,44,22.40
2014,07,12,09,45,22.40
2014,07,12,09,46,22.40
2014,07,12,09,47,22.40
2014,07,12,09,48,22.40
2014,07,12,09,49,22.50
2014,07,12,09,50,22.50
2014,07,12,09,51,22.60
2014,07,12,09,52,22.70
2014,07,12,09,53,22.70
2014,07,12,09,54,22.70
2014,07,12,09,55,22.80
2014,07,12,09,56,22.80
2014,07,12,09,57,22.90
2014,07,12,09,58,22.90
2014,07,12,09,59,22.90
2014,07,12,10,00,22.90
2014,07,12,10,01,22.90
2014,07,12,10,02,22.90
2014,07,12,10,03,22.90
2014,07,12,10,04,23.00
2014,07,12,10,05,23.00
2014,07,12,10,06,22.90
2014,07,12,10,07,22.90
2014,07,12,10,08,22.80
2014,07,12,10,09,22.80
2014,07,12,10,10,22.80
2014,07,12,10,11,22.80
2014,07,12,10,12,22.90
2014,07,12,10,13,22.90
2014,07,12,10,14,22.90
2014,07,12,10,15,22.90
2014,07,12,10,16,22.90
2014,07,12,10,17,22.90
2014,07,12,10,18,22.90
2014,07,12,10,19,22.90
2014,07,12,10,20,23.00
2014,07,12,10,21,23.00
2014,07,12,10,22,23.10
2014,07,12,10,23,23.20
2014,07,12,10,24,23.20
2014,07,12,10,25,23.20
2014,07,12,10,26,23.20
2014,07,12,10,27,23.20
2014,07,12,10,28,23.20
2014,07,12,10,29,23.20
2014,07,12,10,30,23.20
2014,07,12,10,31,23.20
2014,07,12,10,32,23.20
2014,07,12,10,33,23.20
2014,07,12,10,34,23.20
2014,07,12,10,35,23.20
2014,07,12,10,36,23.30
2014,07,12,10,37,23.20
2014,07,12,10,38,23.20
2014,07,12,10,39,23.10
2014,07,12,10,40,23.10
2014,07,12,10,41,23.00
2014,07,12,10,42,23.00
2014,07,12,10,43,22.90
2014,07,12,10,44,22.90
2014,07,12,10,45,22.80
2014,07,12,10,46,22.80
2014,07,12,10,47,22.80
2014,07,12,10,48,22.70
2014,07,12,10,49,22.70
2014,07,12,10,50,22.80
2014,07,12,10,51,22.80
2014,07,12,10,52,22.80
2014,07,12,10,53,22.80
2014,07,12,10,54,22.90
2014,07,12,10,55,22.90
2014,07,12,10,56,23.00
2014,07,12,10,57,23.10
2014,07,12,10,58,23.20
2014,07,12,10,59,23.30
2014,07,12,11,00,23.40
2014,07,12,11,01,23.50
2014,07,12,11,02,23.60
2014,07,12,11,03,23.80
2014,07,12,11,04,23.80
2014,07,12,11,05,23.90
2014,07,12,11,06,24.00
2014,07,12,11,07,24.10
2014,07,12,11,08,24.20
2014,07,12,11,09,24.20
2014,07,12,11,10,24.30
2014,07,12,11,11,24.30
2014,07,12,11,12,24.40
2014,07,12,11,13,24.50
2014,07,12,11,14,24.50
2014,07,12,11,15,24.60
2014,07,12,11,16,24.70
2014,07,12,11,17,24.70
2014,07,12,11,18,24.80
2014,07,12,11,19,24.90
2014,07,12,11,20,24.90
2014,07,12,11,21,24.90
2014,07,12,11,22,25.00
2014,07,12,11,23,25.00
2014,07,12,11,24,25.00
2014,07,12,11,25,25.00
2014,07,12,11,26,25.00
2014,07,12,11,27,25.00
2014,07,12,11,28,24.90
2014,07,12,11,29,24.90
2014,07,12,11,30,24.90
2014,07,12,11,31,25.00
2014,07,12,11,32,25.00
2014,07,12,11,33,25.00
2014,07,12,11,34,25.10
2014,07,12,11,35,25.10
2014,07,12,11,36,25.10
2014,07,12,11,37,25.20
2014,07,12,11,38,25.20
2014,07,12,11,39,25.20
2014,07,12,11,40,25.20
2014,07,12,11,41,25.20
2014,07,12,11,42,25.30
2014,07,12,11,43,25.30
2014,07,12,11,44,25.30
2014,07,12,11,45,25.30
2014,07,12,11,46,25.30
2014,07,12,11,47,25.40
2014,07,12,11,48,25.40
2014,07,12,11,49,25.50
2014,07,12,11,50,25.60
2014,07,12,11,51,25.60
2014,07,12,11,52,25.70
2014,07,12,11,53,25.80
2014,07,12,11,54,25.80
2014,07,12,11,55,25.90
2014,07,12,11,56,26.00
2014,07,12,11,57,26.10
2014,07,12,11,58,26.10
2014,07,12,11,59,26.10
2014,07,12,12,00,26.00
2014,07,12,12,01,26.00
2014,07,12,12,02,26.00
2014,07,12,12,03,26.10
2014,07,12,12,04,26.10
2014,07,12,12,05,26.20
2014,07,12,12,06,26.20
2014,07,12,12,07,26.20
2014,07,12,12,08,26.20
2014,07,12,12,09,26.30
2014,07,12,12,10,26.30
2014,07,12,12,11,26.30
2014,07,12,12,12,26.40
2014,07,12,12,13,26.50
2014,07,12,12,14,26.50
2014,07,12,12,15,26.60
2014,07,12,12,16,26.70
2014,07,12,12,17,26.80
2014,07,12,12,18,26.90
2014,07,12,12,19,27.00
2014,07,12,12,20,27.10
2014,07,12,12,21,27.10
2014,07,12,12,22,27.20
2014,07,12,12,23,27.20
2014,07,12,12,24,27.30
2014,07,12,12,25,27.40
2014,07,12,12,26,27.50
2014,07,12,12,27,27.50
2014,07,12,12,28,27.60
2014,07,12,12,29,27.70
2014,07,12,12,30,27.80
2014,07,12,12,31,27.80
2014,07,12,12,32,27.90
2014,07,12,12,33,28.00
2014,07,12,12,34,28.10
2014,07,12,12,35,28.20
2014,07,12,12,36,28.20
2014,07,12,12,37,28.20
2014,07,12,12,38,28.20
2014,07,12,12,39,28.20
2014,07,12,12,40,28.20
2014,07,12,12,41,28.30
2014,07,12,12,42,28.30
2014,07,12,12,43,28.40
2014,07,12,12,44,28.50
2014,07,12,12,45,28.60
2014,07,12,12,46,28.60
2014,07,12,12,47,28.50
2014,07,12,12,48,28.50
2014,07,12,12,49,28.50
2014,07,12,12,50,28.50
2014,07,12,12,51,28.50
2014,07,12,12,52,28.60
2014,07,12,12,53,28.70
2014,07,12,12,54,28.80
2014,07,12,12,55,28.80
2014,07,12,12,56,28.80
2014,07,12,12,57,28.70
2014,07,12,12,58,28.70
2014,07,12,12,59,28.60
2014,07,12,13,00,28.50
2014,07,12,13,01,28.40
2014,07,12,13,02,28.30
2014,07,12,13,03,28.20
2014,07,12,13,04,28.20
2014,07,12,13,05,28.10
2014,07,12,13,06,28.00
2014,07,12,13,07,27.90
2014,07,12,13,08,27.90
2014,07,12,13,09,27.90
2014,07,12,13,10,27.90
2014,07,12,13,11,27.90
2014,07,12,13,12,27.90
2014,07,12,13,13,28.00
2014,07,12,13,14,28.10
2014,07,12,13,15,28.10
2014,07,12,13,16,28.20
2014,07,12,13,17,28.30
2014,07,12,13,18,28.40
2014,07,12,13,19,28.40
2014,07,12,13,20,28.50
2014,07,12,13,21,28.50
2014,07,12,13,22,28.60
2014,07,12,13,23,28.60
2014,07,12,13,24,28.60
2014,07,12,13,25,28.70
2014,07,12,13,26,28.70
2014,07,12,13,27,28.80
2014,07,12,13,28,28.80
2014,07,12,13,29,28.70
2014,07,12,13,30,28.70
2014,07,12,13,31,28.60
2014,07,12,13,32,28.60
2014,07,12,13,33,28.60
2014,07,12,13,34,28.60
2014,07,12,13,35,28.60
2014,07,12,13,36,28.60
2014,07,12,13,37,28.60
2014,07,12,13,38,28.50
2014,07,12,13,39,28.60
2014,07,12,13,40,28.60
2014,07,12,13,41,28.70
2014,07,12,13,42,28.70
2014,07,12,13,43,28.80
2014,07,12,13,44,28.80
2014,07,12,13,45,28.90
2014,07,12,13,46,28.90
2014,07,12,13,47,28.90
2014,07,12,13,48,28.90
2014,07,12,13,49,29.00
2014,07,12,13,50,29.10
2014,07,12,13,51,29.10
2014,07,12,13,52,29.10
2014,07,12,13,53,29.20
2014,07,12,13,54,29.20
2014,07,12,13,55,29.20
2014,07,12,13,56,29.20
2014,07,12,13,57,29.20
2014,07,12,13,58,29.30
2014,07,12,13,59,29.30
2014,07,12,14,00,29.30
2014,07,12,14,01,29.20
2014,07,12,14,02,29.20
2014,07,12,14,03,29.10
2014,07,12,14,04,29.10
2014,07,12,14,05,29.00
2014,07,12,14,06,29.10
2014,07,12,14,07,29.10
2014,07,12,14,08,29.10
2014,07,12,14,09,29.10
2014,07,12,14,10,29.20
2014,07,12,14,11,29.20
2014,07,12,14,12,29.20
2014,07,12,14,13,29.30
2014,07,12,14,14,29.20
2014,07,12,14,15,29.20
2014,07,12,14,16,29.20
2014,07,12,14,17,29.20
2014,07,12,14,18,29.20
2014,07,12,14,19,29.30
2014,07,12,14,20,29.30
2014,07,12,14,21,29.40
2014,07,12,14,22,29.40
2014,07,12,14,23,29.30
2014,07,12,14,24,29.30
2014,07,12,14,25,29.20
2014,07,12,14,26,29.20
2014,07,12,14,27,29.10
2014,07,12,14,28,29.00
2014,07,12,14,29,28.90
2014,07,12,14,30,28.90
2014,07,12,14,31,28.80
2014,07,12,14,32,28.80
2014,07,12,14,33,28.80
2014,07,12,14,34,28.80
2014,07,12,14,35,28.80
2014,07,12,14,36,28.80
2014,07,12,14,37,28.80
2014,07,12,14,38,28.90
2014,07,12,14,39,28.90
2014,07,12,14,40,28.90
2014,07,12,14,41,28.90
2014,07,12,14,42,28.90
2014,07,12,14,43,28.90
2014,07,12,14,44,28.90
2014,07,12,14,45,28.90
2014,07,12,14,46,28.90
2014,07,12,14,47,28.90
2014,07,12,14,48,29.00
2014,07,12,14,49,29.00
2014,07,12,14,50,29.10
2014,07,12,14,51,29.20
2014,07,12,14,52,29.20
2014,07,12,14,53,29.20
2014,07,12,14,54,29.20
2014,07,12,14,55,29.20
2014,07,12,14,56,29.30
2014,07,12,14,57,29.30
2014,07,12,14,58,29.30
2014,07,12,14,59,29.30
2014,07,12,15,00,29.30
2014,07,12,15,01,29.30
2014,07,12,15,02,29.30
2014,07,12,15,03,29.30
2014,07,12,15,04,29.30
2014,07,12,15,05,29.40
2014,07,12,15,06,29.40
2014,07,12,15,07,29.40
2014,07,12,15,08,29.50
2014,07,12,15,09,29.50
2014,07,12,15,10,29.50
2014,07,12,15,11,29.40
2014,07,12,15,12,29.40
2014,07,12,15,13,29.30
2014,07,12,15,14,29.30
2014,07,12,15,15,29.20
2014,07,12,15,16,29.20
2014,07,12,15,17,29.10
2014,07,12,15,18,29.10
2014,07,12,15,19,29.10
2014,07,12,15,20,29.10
2014,07,12,15,21,29.10
2014,07,12,15,22,29.00
2014,07,12,15,23,29.00
2014,07,12,15,24,28.90
2014,07,12,15,25,28.90
2014,07,12,15,26,28.90
2014,07,12,15,27,28.90
2014,07,12,15,28,28.90
2014,07,12,15,29,28.90
2014,07,12,15,30,28.90
2014,07,12,15,31,29.00
2014,07,12,15,32,29.00
2014,07,12,15,33,29.00
2014,07,12,15,34,29.10
2014,07,12,15,35,29.10
2014,07,12,15,36,29.20
2014,07,12,15,37,29.30
2014,07,12,15,38,29.30
2014,07,12,15,39,29.30
2014,07,12,15,40,29.40
2014,07,12,15,41,29.40
2014,07,12,15,42,29.50
2014,07,12,15,43,29.60
2014,07,12,15,44,29.60
2014,07,12,15,45,29.60
2014,07,12,15,46,29.60
2014,07,12,15,47,29.60
2014,07,12,15,48,29.60
2014,07,12,15,49,29.60
2014,07,12,15,50,29.70
2014,07,12,15,51,29.70
2014,07,12,15,52,29.70
2014,07,12,15,53,29.70
2014,07,12,15,54,29.60
2014,07,12,15,55,29.60
2014,07,12,15,56,29.60
2014,07,12,15,57,29.60
2014,07,12,15,58,29.60
2014,07,12,15,59,29.60
2014,07,12,16,00,29.60
2014,07,12,16,01,29.60
2014,07,12,16,02,29.60
2014,07,12,16,03,29.60
2014,07,12,16,04,29.60
2014,07,12,16,05,29.60
2014,07,12,16,06,29.70
2014,07,12,16,07,29.70
2014,07,12,16,08,29.70
2014,07,12,16,09,29.80
2014,07,12,16,10,29.80
2014,07,12,16,11,29.80
2014,07,12,16,12,29.90
2014,07,12,16,13,30.00
2014,07,12,16,14,30.10
2014,07,12,16,15,30.20
2014,07,12,16,16,30.30
2014,07,12,16,17,30.40
2014,07,12,16,18,30.40
2014,07,12,16,19,30.40
2014,07,12,16,20,30.50
2014,07,12,16,21,30.50
2014,07,12,16,22,30.60
2014,07,12,16,23,30.70
2014,07,12,16,24,30.80
2014,07,12,16,25,30.90
2014,07,12,16,26,30.90
2014,07,12,16,27,30.90
2014,07,12,16,28,30.90
2014,07,12,16,29,31.00
2014,07,12,16,30,31.00
2014,07,12,16,31,31.10
2014,07,12,16,32,31.10
2014,07,12,16,33,31.00
2014,07,12,16,34,31.00
2014,07,12,16,35,30.90
2014,07,12,16,36,30.90
2014,07,12,16,37,31.00
2014,07,12,16,38,31.00
2014,07,12,16,39,31.00
2014,07,12,16,40,31.10
2014,07,12,16,41,31.10
2014,07,12,16,42,31.20
2014,07,12,16,43,31.30
2014,07,12,16,44,31.40
2014,07,12,16,45,31.40
2014,07,12,16,46,31.40
2014,07,12,16,47,31.40
2014,07,12,16,48,31.40
2014,07,12,16,49,31.40
2014,07,12,16,50,31.40
2014,07,12,16,51,31.40
2014,07,12,16,52,31.40
2014,07,12,16,53,31.40
2014,07,12,16,54,31.30
2014,07,12,16,55,31.20
2014,07,12,16,56,31.20
2014,07,12,16,57,31.20
2014,07,12,16,58,31.10
2014,07,12,16,59,31.10
2014,07,12,17,00,31.10
2014,07,12,17,01,31.10
2014,07,12,17,02,31.10
2014,07,12,17,03,31.10
2014,07,12,17,04,31.10
2014,07,12,17,05,31.20
2014,07,12,17,06,31.20
2014,07,12,17,07,31.20
2014,07,12,17,08,31.20
2014,07,12,17,09,31.20
2014,07,12,17,10,31.20
2014,07,12,17,11,31.30
2014,07,12,17,12,31.30
2014,07,12,17,13,31.40
2014,07,12,17,14,31.40
2014,07,12,17,15,31.40
2014,07,12,17,16,31.40
2014,07,12,17,17,31.40
2014,07,12,17,18,31.30
2014,07,12,17,19,31.30